Location: Frankfurt am Main
(50.1109°N, 8.6821°E)
Time: 14:27:09
(UTC+01:00)

ISS - Pass Details

Date: 31 October 2021
Orbit: 417 x 422 km, 51.6° (Epoch: 07 December)

Event Time Altitude Azimuth Distance (km) Brightness Sun altitude
Exits shadow 05:28:21 49° 297° (WNW) 552 -3.6 -17.3°
Maximum altitude 05:29:04 66° 356° (N) 462 -3.7 -17.2°
Drops below altitude 10° 05:32:25 10° 80° (E) 1,500 0.3 -16.6°
Sets 05:34:31 0° 83° (E) 2,363 1.8 -16.3°
